Weather History for Cape Cod CGAS, MA

Change the Weather History Date:

Wednesday, October 19, 2011

  Actual Average Record
Temperature  
Mean Temperature 55 °F -  
Max Temperature 62 °F 56 °F 69 °F (1998)
Min Temperature 48 °F 40 °F 28 °F (1999)
Degree Days  
Heating Degree Days 10    
Growing Degree Days 5 (Base 50)    
Moisture  
Dew Point 57 °F    
Average Humidity 95    
Maximum Humidity 100    
Minimum Humidity 82    
Precipitation  
Precipitation 0.09 in - - ()
Sea Level Pressure  
Sea Level Pressure 29.87 in    
Wind  
Wind Speed 8 mph (ENE)    
Max Wind Speed 18 mph    
Max Gust Speed 29 mph    
Visibility 6 miles    
Events Rain    
Averages and records for this station are not official NWS values.
T = Trace of Precipitation, MM = Missing Value Source: NWS Daily Summary

Daily Weather History Graph

Daily Weather History Graph

Search for Another Location

Airport:

Trip Planner

Search our weather history database for the weather conditions in past years. The results will help you decide how hot, cold, wet, or windy it might be!

Date:

Astronomy

Oct. 19, 2011 Rise Set
Actual Time 6:58 AM EDT 5:55 PM EDT
Civil Twilight 6:30 AM EDT 6:23 PM EDT
Nautical Twilight 5:57 AM EDT 6:55 PM EDT
Astronomical Twilight 5:25 AM EDT 7:27 PM EDT
Moon 11:35 PM EDT (10/19) 1:29 PM EDT (10/19)
Length of Visible Light 11h 52m
Length of Day
10h 56m
Waning Gibbous, 55% of the Moon is Illuminated
Oct 19
Waning Gibbous
Oct 19
Last Quarter
Oct 26
New
Nov 2
First Quarter
Nov 10
Full

Hourly Weather History & Observations

Time (EDT) Temp. Dew Point Humidity Pressure Visibility Wind Dir Wind Speed Gust Speed Precip Events Conditions
12:15 AM 48.2 °F 48.2 °F 100% 29.95 in 10.0 mi NE 4.6 mph - N/A   Overcast
12:35 AM 50.0 °F 50.0 °F 100% 29.95 in 10.0 mi ENE 4.6 mph - N/A   Overcast
12:55 AM 50.0 °F 50.0 °F 100% 29.95 in 10.0 mi Calm Calm - N/A   Overcast
1:15 AM 48.2 °F 48.2 °F 100% 29.95 in 10.0 mi NE 3.5 mph - N/A   Overcast
1:35 AM 50.0 °F 48.2 °F 94% 29.96 in 10.0 mi ENE 3.5 mph - N/A   Overcast
1:55 AM 53.6 °F 50.0 °F 88% 29.95 in 10.0 mi NE 6.9 mph - N/A   Overcast
2:15 AM 53.6 °F 50.0 °F 88% 29.93 in 10.0 mi ENE 5.8 mph - N/A   Overcast
2:35 AM 53.6 °F 51.8 °F 94% 29.94 in 10.0 mi ENE 4.6 mph - N/A   Overcast
2:55 AM 53.6 °F 51.8 °F 94% 29.93 in 10.0 mi NE 6.9 mph - N/A   Overcast
3:15 AM 53.6 °F 51.8 °F 94% 29.92 in 10.0 mi NE 6.9 mph - N/A   Overcast
3:35 AM 55.4 °F 53.6 °F 94% 29.92 in 10.0 mi NE 4.6 mph - N/A   Overcast
3:55 AM 55.4 °F 53.6 °F 94% 29.92 in 10.0 mi NE 6.9 mph - N/A   Mostly Cloudy
4:15 AM 55.4 °F 53.6 °F 94% 29.94 in 10.0 mi ENE 4.6 mph - N/A   Mostly Cloudy
4:35 AM 55.4 °F 55.4 °F 100% 29.94 in 10.0 mi NE 8.1 mph - N/A   Overcast
4:55 AM 55.4 °F 53.6 °F 94% 29.94 in 10.0 mi ENE 8.1 mph - N/A   Mostly Cloudy
5:15 AM 55.4 °F 53.6 °F 94% 29.91 in 10.0 mi East 9.2 mph - N/A   Scattered Clouds
5:35 AM 57.2 °F 53.6 °F 88% 29.91 in 10.0 mi East 6.9 mph - N/A   Partly Cloudy
5:55 AM 57.2 °F 53.6 °F 88% 29.93 in 10.0 mi East 9.2 mph - N/A   Mostly Cloudy
6:15 AM 57.2 °F 53.6 °F 88% 29.93 in 10.0 mi ESE 9.2 mph - N/A   Mostly Cloudy
6:35 AM 57.2 °F 53.6 °F 88% 29.93 in 10.0 mi ESE 9.2 mph - N/A   Scattered Clouds
6:55 AM 59.0 °F 53.6 °F 82% 29.93 in 10.0 mi East 6.9 mph - N/A   Scattered Clouds
7:15 AM 59.0 °F 55.4 °F 88% 29.93 in 10.0 mi East 8.1 mph - N/A   Scattered Clouds
7:35 AM 57.2 °F 55.4 °F 94% 29.92 in 10.0 mi ENE 6.9 mph - N/A   Partly Cloudy
7:55 AM 59.0 °F 55.4 °F 88% 29.92 in 10.0 mi ENE 8.1 mph - N/A   Mostly Cloudy
8:15 AM 59.0 °F 55.4 °F 88% 29.94 in 10.0 mi East 6.9 mph - N/A   Overcast
8:35 AM 59.0 °F 57.2 °F 94% 29.96 in 10.0 mi East 8.1 mph - N/A   Overcast
8:55 AM 60.8 °F 57.2 °F 88% 29.93 in 10.0 mi East 9.2 mph - N/A   Overcast
9:15 AM 60.8 °F 59.0 °F 94% 29.93 in 9.0 mi East 9.2 mph - N/A   Overcast
9:35 AM 60.8 °F 59.0 °F 94% 29.93 in 4.0 mi East 4.6 mph - N/A Rain Light Rain
9:55 AM 60.8 °F 59.0 °F 94% 29.93 in 1.8 mi NE 6.9 mph - 0.01 in Rain Light Rain
10:15 AM 60.8 °F 59.0 °F 94% 29.91 in 2.5 mi NE 10.4 mph - N/A Rain Light Rain
10:35 AM 59.0 °F 59.0 °F 100% 29.90 in 3.0 mi East 10.4 mph - 0.01 in Rain Light Rain
10:55 AM 60.8 °F 59.0 °F 94% 29.90 in 3.0 mi ENE 9.2 mph - 0.02 in Rain Light Rain
11:15 AM 60.8 °F 60.8 °F 100% 29.89 in 2.5 mi ENE 12.7 mph - N/A   Overcast
11:35 AM 60.8 °F 60.8 °F 100% 29.88 in 3.0 mi ENE 9.2 mph - N/A   Overcast
11:55 AM 60.8 °F 60.8 °F 100% 29.87 in 2.5 mi East 6.9 mph - N/A Rain Light Rain
12:15 PM 62.6 °F 62.6 °F 100% 29.85 in 4.0 mi East 10.4 mph 16.1 mph N/A   Overcast
12:35 PM 62.6 °F 62.6 °F 100% 29.83 in 1.2 mi East 12.7 mph - 0.01 in Rain Light Rain
12:55 PM 62.6 °F 62.6 °F 100% 29.82 in 2.0 mi East 13.8 mph 19.6 mph 0.01 in Rain Light Rain
1:15 PM 62.6 °F 62.6 °F 100% 29.82 in 5.0 mi East 17.3 mph 21.9 mph N/A   Overcast
1:35 PM 62.6 °F 62.6 °F 100% 29.80 in 2.5 mi East 15.0 mph 21.9 mph N/A Rain Light Rain
1:55 PM 62.6 °F 62.6 °F 100% 29.78 in 2.0 mi East 13.8 mph 23.0 mph N/A Rain Light Rain
2:15 PM 62.6 °F 62.6 °F 100% 29.77 in 3.0 mi East 15.0 mph 23.0 mph N/A Rain Light Rain
2:35 PM 62.6 °F 60.8 °F 94% 29.76 in 2.5 mi East 18.4 mph 25.3 mph N/A Rain Light Rain
2:55 PM 62.6 °F 60.8 °F 94% 29.74 in 1.8 mi East 13.8 mph 23.0 mph N/A Rain Light Rain
3:15 PM 62.6 °F 60.8 °F 94% 29.72 in 1.0 mi East 16.1 mph 27.6 mph N/A Rain Light Rain
3:35 PM 62.6 °F 60.8 °F 94% 29.71 in 1.0 mi East 15.0 mph 28.8 mph N/A Rain Light Rain
3:55 PM 62.6 °F 59.0 °F 88% 29.69 in 1.0 mi East 16.1 mph 26.5 mph 0.01 in Rain Light Rain
4:15 PM 62.6 °F 60.8 °F 94% 29.68 in 1.0 mi East 16.1 mph 21.9 mph N/A Rain Light Rain
4:35 PM 62.6 °F 62.6 °F 100% 29.67 in 0.5 mi East 15.0 mph 25.3 mph 0.02 in Rain Light Rain
4:55 PM 62.6 °F 62.6 °F 100% 29.67 in 1.0 mi East 16.1 mph 27.6 mph 0.03 in Rain Light Rain
5:15 PM 62.6 °F 60.8 °F 94% 29.66 in 0.5 mi East 15.0 mph 20.7 mph 0.01 in Rain Light Rain
5:35 PM 62.6 °F 60.8 °F 94% 29.64 in 0.8 mi East 12.7 mph 19.6 mph 0.02 in Rain Light Rain
5:55 PM 62.6 °F 62.6 °F 100% 29.64 in 0.5 mi East 15.0 mph 20.7 mph 0.08 in Rain Rain
6:15 PM 62.6 °F 60.8 °F 94% 29.65 in 2.5 mi ESE 10.4 mph 17.3 mph 0.01 in Rain Light Rain
6:35 PM 62.6 °F 62.6 °F 100% 29.64 in 3.0 mi ESE 10.4 mph - 0.04 in Rain Light Rain
6:55 PM 64.4 °F 62.6 °F 94% 29.64 in 4.0 mi SE 9.2 mph 16.1 mph 0.04 in   Overcast
7:15 PM 64.4 °F 64.4 °F 100% 29.63 in 1.5 mi SSE 9.2 mph - N/A   Overcast
7:35 PM 64.4 °F 64.4 °F 100% 29.63 in 0.8 mi SSE 8.1 mph - N/A   Overcast
7:55 PM 66.2 °F 66.2 °F 100% 29.62 in 1.8 mi SSE 8.1 mph - N/A   Overcast
8:15 PM 66.2 °F 66.2 °F 100% 29.62 in 3.0 mi South 10.4 mph - N/A Rain Light Rain
8:35 PM 66.2 °F 66.2 °F 100% 29.62 in 3.0 mi South 9.2 mph - N/A Rain Light Rain
8:55 PM 66.2 °F 66.2 °F 100% 29.62 in 3.0 mi South 11.5 mph - N/A   Overcast
9:15 PM 68.0 °F 66.2 °F 94% 29.62 in 1.5 mi South 11.5 mph - N/A   Overcast
9:55 PM 68.0 °F 68.0 °F 100% 29.62 in 5.0 mi South 11.5 mph - N/A   Overcast
10:15 PM 68.0 °F 66.2 °F 94% 29.61 in 4.0 mi South 6.9 mph - N/A   Overcast
10:35 PM 66.2 °F 66.2 °F 100% 29.60 in 2.0 mi SSE 8.1 mph - 0.01 in Rain Light Rain
10:55 PM 68.0 °F 66.2 °F 94% 29.59 in 4.0 mi South 8.1 mph - 0.02 in Rain Light Rain
11:15 PM 68.0 °F 66.2 °F 94% 29.59 in 5.0 mi South 10.4 mph - N/A Rain Light Rain
11:35 PM 68.0 °F 66.2 °F 94% 29.58 in 4.0 mi South 11.5 mph - N/A Rain Light Rain
11:55 PM 68.0 °F 68.0 °F 100% 29.57 in 2.0 mi South 9.2 mph - 0.02 in Rain Light Rain